カタログに戻る

STARLINK-6302

運用中通信VLEO
NORAD 56396·PAYLOAD·🇺🇸 United States

打ち上げ May 4, 2023 から Cape Canaveral Space Force Station

Loading…

次のパス (今後24時間)

TLE

最新Source: CelesTrak SupGP

元期: Sep 14, 2026, 13:50 UTC

1 56396C 23061Y   26257.57687500 -.00029650  00000+0 -10742-2 0  2577
2 56396  43.0027 200.1294 0001595 267.8010 124.6136 15.27584789    19

AllMySatでSTARLINK-6302をリアルタイム追跡

Download on the App Store